This demonstration page uses our WeatherBlox Daily Observations layout. Learn more.

Left ArrowRight Arrow

Hourly Observations for August 6, 2016

Temp ( °F °C ) Dew Point ( °F °C ) Humidity (%) Winds ( mph kmh ) Pressure ( in mb ) Visibility ( mi km ) Precip ( " mm )
12:15 am 00:15 Clear 77 25 77 25 100 100 SSW 10 17 29.91 1013 10 16 0.00 0.00
12:35 am 00:35 Partly Cloudy 75 24 75 24 100 100 SSW 8 13 29.91 1013 10 16 0.00 0.00
12:55 am 00:55 Partly Cloudy 75 24 75 24 100 100 SSW 8 13 29.91 1013 10 16 0.00 0.00
1:15 am 01:15 Mostly Cloudy 75 24 75 24 100 100 SW 6 9 29.88 1012 10 16 0.00 0.00
1:35 am 01:35 Cloudy 75 24 75 24 100 100 SW 5 7 29.88 1012 10 16 0.00 0.00
1:55 am 01:55 Cloudy 75 24 75 24 100 100 SSW 6 9 29.88 1012 10 16 0.00 0.00
2:15 am 02:15 Cloudy 75 24 75 24 100 100 SSW 8 13 29.88 1012 10 16 0.00 0.00
2:35 am 02:35 Mostly Cloudy 75 24 75 24 100 100 SSW 6 9 29.85 1011 10 16 0.00 0.00
2:55 am 02:55 Partly Cloudy 73 23 73 23 100 100 SSW 5 7 29.85 1011 7 11 0.00 0.00
3:15 am 03:15 Mostly Cloudy 73 23 73 23 100 100 SSW 7 11 29.85 1011 10 16 0.00 0.00
3:35 am 03:35 Cloudy 73 23 73 23 100 100 SSW 6 9 29.85 1011 7 11 0.00 0.00
3:55 am 03:55 Cloudy 75 24 75 24 100 100 SSW 6 9 29.85 1011 7 11 0.00 0.00
4:15 am 04:15 Cloudy 73 23 73 23 100 100 SSW 6 9 29.85 1011 7 11 0.00 0.00
4:35 am 04:35 Cloudy 73 23 73 23 100 100 SSW 6 9 29.85 1011 7 11 0.00 0.00
4:55 am 04:55 Cloudy 73 23 73 23 100 100 SW 3 6 29.85 1011 7 11 0.00 0.00
5:15 am 05:15 Cloudy 73 23 73 23 100 100 SSW 5 7 29.85 1011 7 11 0.00 0.00
5:35 am 05:35 Cloudy 73 23 73 23 100 100 SW 3 6 29.85 1011 7 11 0.00 0.00
5:55 am 05:55 Cloudy 73 23 73 23 100 100 SW 3 6 29.85 1011 10 16 0.00 0.00
6:15 am 06:15 Cloudy 73 23 73 23 100 100 WSW 5 7 29.85 1011 10 16 0.00 0.00
6:35 am 06:35 Cloudy 73 23 73 23 100 100 SW 6 9 29.85 1011 7 11 0.00 0.00
6:55 am 06:55 Cloudy 75 24 75 24 100 100 WSW 3 6 29.85 1011 7 11 0.00 0.00
7:15 am 07:15 Cloudy with Mist and Fog 75 24 75 24 100 100 WSW 5 7 29.85 1011 5 8 0.00 0.00
7:35 am 07:35 Cloudy 75 24 75 24 100 100 WSW 3 6 29.85 1011 7 11 0.00 0.00
7:55 am 07:55 Cloudy 75 24 75 24 100 100 SW 5 7 29.85 1011 7 11 0.00 0.00
8:15 am 08:15 Mostly Cloudy 75 24 75 24 100 100 WSW 6 9 29.85 1011 7 11 0.00 0.00
8:35 am 08:35 Partly Cloudy 77 25 77 25 100 100 SW 5 7 29.85 1011 10 16 0.00 0.00
8:55 am 08:55 Mostly Cloudy 79 26 77 25 94 94 W 5 7 29.85 1011 10 16 0.00 0.00
9:15 am 09:15 Mostly Cloudy 79 26 77 25 94 94 WSW 5 7 29.85 1011 10 16 0.00 0.00
9:35 am 09:35 Mostly Cloudy 81 27 77 25 89 89 SW 6 9 29.85 1011 10 16 0.00 0.00
9:55 am 09:55 Cloudy 81 27 77 25 89 89 SW 5 7 29.85 1011 10 16 0.00 0.00
10:15 am 10:15 Cloudy 82 28 77 25 84 84 W 5 7 29.85 1011 10 16 0.00 0.00
10:35 am 10:35 Cloudy 86 30 77 25 75 75 WSW 7 11 29.83 1010 10 16 0.00 0.00
10:55 am 10:55 Cloudy 82 28 77 25 84 84 W 5 7 29.85 1011 10 16 0.00 0.00
11:15 am 11:15 Partly Cloudy 84 29 77 25 79 79 SW 3 6 29.80 1009 10 16 0.00 0.00
11:35 am 11:35 Partly Cloudy 88 31 77 25 70 70 WSW 3 6 29.80 1009 10 16 0.00 0.00
11:55 am 11:55 Partly Cloudy 88 31 77 25 70 70 S 6 9 29.80 1009 10 16 0.00 0.00
12:15 pm 12:15 Mostly Cloudy 90 32 77 25 67 67 WNW 14 22 29.80 1009 10 16 0.00 0.00
12:35 pm 12:35 Partly Cloudy 90 32 77 25 67 67 NW 8 13 29.80 1009 10 16 0.00 0.00
12:55 pm 12:55 Partly Cloudy 90 32 77 25 67 67 NW 7 11 29.80 1009 10 16 0.00 0.00
1:15 pm 13:15 Mostly Cloudy 88 31 77 25 70 70 NNW 8 13 29.80 1009 10 16 0.00 0.00
1:35 pm 13:35 Mostly Cloudy with Light Rain 88 31 77 25 70 70 NNW 7 11 29.80 1009 10 16 0.00 0.00
1:55 pm 13:55 Cloudy 81 27 79 26 94 94 N 6 9 29.83 1010 5 8 0.00 0.00
2:15 pm 14:15 Cloudy with Rain 79 26 79 26 100 100 WNW 8 13 29.83 1010 5 8 0.00 0.00
2:35 pm 14:35 Cloudy 79 26 77 25 94 94 W 7 11 29.80 1009 10 16 0.00 0.00
2:55 pm 14:55 Mostly Cloudy with Nearby Thunderstorms 81 27 79 26 94 94 WNW 9 15 29.80 1009 10 16 0.00 0.00
3:15 pm 15:15 Partly Cloudy 86 30 81 27 84 84 W 8 13 29.77 1008 10 16 0.00 0.00
3:35 pm 15:35 Sunny 88 31 79 26 75 75 SSW 10 17 29.77 1008 10 16 0.00 0.00
3:55 pm 15:55 Sunny with Nearby Thunderstorms 88 31 79 26 75 75 Calm 29.77 1008 10 16 0.00 0.00
4:15 pm 16:15 Sunny 90 32 77 25 67 67 WNW 5 7 29.74 1007 10 16 0.00 0.00
4:35 pm 16:35 Sunny 90 32 79 26 71 71 S 6 9 29.74 1007 10 16 0.00 0.00
4:55 pm 16:55 Sunny 90 32 77 25 67 67 S 7 11 29.74 1007 10 16 0.00 0.00
5:15 pm 17:15 Sunny 90 32 77 25 67 67 WSW 8 13 29.74 1007 10 16 0.00 0.00
5:35 pm 17:35 Sunny 90 32 77 25 67 67 W 7 11 29.74 1007 10 16 0.00 0.00
5:55 pm 17:55 Sunny 90 32 77 25 67 67 SSW 7 11 29.74 1007 10 16 0.00 0.00
6:15 pm 18:15 Sunny 90 32 79 26 71 71 SSW 10 17 29.74 1007 10 16 0.00 0.00
6:35 pm 18:35 Sunny 88 31 79 26 75 75 S 10 17 29.74 1007 10 16 0.00 0.00
6:55 pm 18:55 Partly Cloudy 88 31 79 26 75 75 SW 8 13 29.74 1007 10 16 0.00 0.00
7:15 pm 19:15 Sunny 86 30 79 26 79 79 W 6 9 29.74 1007 10 16 0.00 0.00
7:35 pm 19:35 Sunny 86 30 77 25 75 75 SW 8 13 29.77 1008 10 16 0.00 0.00
7:55 pm 19:55 Sunny 82 28 77 25 84 84 WSW 6 9 29.80 1009 10 16 0.00 0.00
8:15 pm 20:15 Mostly Cloudy 82 28 77 25 84 84 SW 3 6 29.80 1009 10 16 0.00 0.00
8:35 pm 20:35 Mostly Cloudy 81 27 77 25 89 89 W 9 15 29.83 1010 10 16 0.00 0.00
8:55 pm 20:55 Partly Cloudy 81 27 77 25 89 89 W 5 7 29.83 1010 10 16 0.00 0.00
9:15 pm 21:15 Partly Cloudy 79 26 75 24 89 89 W 8 13 29.83 1010 10 16 0.00 0.00
9:35 pm 21:35 Clear 79 26 72 22 79 79 WSW 3 6 29.85 1011 10 16 0.00 0.00
9:55 pm 21:55 Clear 79 26 72 22 79 79 NW 5 7 29.85 1011 10 16 0.00 0.00
10:15 pm 22:15 Clear 79 26 70 21 74 74 W 3 6 29.85 1011 10 16 0.00 0.00
10:35 pm 22:35 Clear 81 27 70 21 70 70 S 6 9 29.85 1011 10 16 0.00 0.00
10:55 pm 22:55 Clear 81 27 66 19 62 62 WNW 6 9 29.88 1012 10 16 0.00 0.00
11:15 pm 23:15 Clear 79 26 64 18 61 61 NW 9 15 29.88 1012 10 16 0.00 0.00
11:35 pm 23:35 Clear 77 25 64 18 65 65 NW 9 15 29.88 1012 10 16 0.00 0.00
11:55 pm 23:55 Clear 79 26 64 18 61 61 WNW 8 13 29.88 1012 10 16 0.00 0.00

Powered by AerisWeather